Home   Weather   Whistler   Past weeks

Flag for Canada Past Weather in Whistler, British Columbia, Canada — Yesterday and Last 2 Weeks

Now
49 °F

Cool.


Feels Like: 49 °F
Forecast: 37 / 54 °F
Wind: 2 mph from Southeast

Location: Squamish Airport

Current Time: Apr 23, 2017 at 8:40:55 pm

Latest Report: Apr 23, 2017 at 8:00 pm


Visibility: N/A

Pressure: 29.75 "Hg (27.42 "Hg at 674m altitude)

Humidity: 88%

Dew Point: 46 °F

Location of WhistlerLocation

Past Weather in Whistler — Graph

°F

Whistler Temperature Yesterday

Maximum temperature yesterday: 55 °F (at 2:00 pm)
Minimum temperature yesterday: 44 °F (at 4:00 am)
Average temperature yesterday: 49 °F

High & Low Weather Summary for the Past Weeks

 TemperatureHumidityPressure
High68 °F (Apr 21, 5:00 pm)100% (Apr 9, 12:00 am)30.43 "Hg (Apr 9, 12:00 am)
Low33 °F (Apr 16, 5:00 am)22% (Apr 16, 5:00 pm)29.63 "Hg (Apr 13, 3:00 am)
Average46 °F81%29.99 "Hg
* Reported Apr 8 7:00 pm — Apr 23 7:00 pm, Whistler, Weather by CustomWeather, © 2017

Note: Actual official high and low records may vary slightly from our data, if they occured in-between our weather recording intervals... More about our weather records

Advertising

Whistler Weather History for the Previous 24 Hours

Scroll right to see more
 ConditionsComfort  
Time TempWeatherWind HumidityBarometerVisibility
7:00 pm
Sun, Apr 23
50 °FCool.6 mph85%29.75 "HgN/A
6:00 pm50 °FCool.3 mph86%29.76 "HgN/A
5:00 pm56 °FRefreshingly cool.7 mph58%29.74 "HgN/A
4:00 pm58 °FRefreshingly cool.8 mph60%29.76 "HgN/A
3:00 pm58 °FRefreshingly cool.10 mph57%29.78 "HgN/A
2:00 pm58 °FCool.8 mph60%29.79 "HgN/A
1:00 pm57 °FCool.5 mph62%29.81 "HgN/A
12:00 pm55 °FCool.1 mph69%29.83 "HgN/A
11:00 am54 °FCool.2 mph74%29.85 "HgN/A
10:00 am51 °FCool.1 mph82%29.86 "HgN/A
9:00 am47 °FCool.2 mph93%29.87 "HgN/A
8:00 am44 °FQuite cool.1 mph100%29.88 "HgN/A
7:00 am45 °FQuite cool.1 mph90%29.88 "HgN/A
6:00 am45 °FCool.1 mph96%29.89 "HgN/A
5:00 am45 °FCool.1 mph96%29.90 "HgN/A
4:00 am45 °FCool.No wind96%29.90 "HgN/A
3:00 am46 °FCool.1 mph95%29.91 "HgN/A
2:00 am46 °FCool.5 mph94%29.91 "HgN/A
1:00 am47 °FCool.6 mph91%29.90 "HgN/A
12:00 am47 °FCool.3 mph94%29.90 "HgN/A
11:00 pm
Sat, Apr 22
47 °FCool.1 mph96%29.89 "HgN/A
10:00 pm46 °FCool.2 mph100%29.88 "HgN/A
9:00 pm48 °FCool.1 mph96%29.86 "HgN/A
8:00 pm48 °FCool.1 mph95%29.86 "HgN/A
Weather by CustomWeather, © 2017

See weather overviewHow to use our weather pages